sat.trackr.live / text

‹ back to catalog

STARLINK-36206

NORAD 66930 · 2025-286F

PAYLOAD ACTIVE UNKNOWN

§ Identity

Operator
Country
US
Launch date
2025-12-07
Launch site
AFWTR
Launch vehicle
Mass (kg)
RCS (m²)

Purposes: comms

External: N2YO · Heavens-Above · Gunter

§ Orbital elements

Epoch: 2026-09-20T05:39:35.766432Z

Period
93.85 min
Inclination
53.1602°
Eccentricity
0.0001378
Mean motion
15.34404613 rev/d
Perigee alt
461.7 km
Apogee alt
463.6 km
Semi-major
6,840.8 km
B*
5.0649e-4
RAAN
171.1879°
Arg perigee
31.4084°
Mean anomaly
328.7001°
Rev number
4,524

§ Raw data

STARLINK-362061 66930U 25286F   26263.23583063  .00016777  00000+0  50649-3 0  99902 66930  53.1602 171.1879 0001378  31.4084 328.7001 15.34404613 45243

JSON: /api/v1/satellites/66930 · /tle

For live sub-satellite position, see the globe view (requires WebGL).

§ Visibility from observer

Set your observer location to see the next 7 days of passes ≥ 10°. The values pass through the URL so the page stays shareable.

No JS? Fill the form by hand. The geolocation button needs JavaScript.